RXI2621 OEJN-OMDB

Flight info

Callsign RXI2621
Flight time N/A
Altitude 41000
Route EGREP2W EGREP B417 GAS L308 DAROR P559 TOMSO/N0520F310 P559 VUTEB VUTEB3C
Aircraft A35K/H-SDE2E3GHIJ3J4J5LM1ORWXY/LB1D1

Departure

Time 2025-10-27 20:00
Airport King Abdulaziz International Airport (OEJN)

Arrival

Time N/A
Airport Dubai International Airport (OMDB)
Time Latitude Longitude Altitude Speed Heading
2025-10-27 19:34 21.66636 39.17052 50 ft 0 kts 70°
2025-10-27 19:47 21.66634 39.17047 50 ft 2 kts 70°
2025-10-27 19:48 21.66631 39.17037 48 ft 2 kts 70°
2025-10-27 19:48 21.66623 39.17000 44 ft 2 kts 92°
2025-10-27 19:49 21.66629 39.16975 44 ft 2 kts 117°
2025-10-27 19:49 21.66639 39.16954 45 ft 1 kts 117°
2025-10-27 19:50 21.66652 39.16934 43 ft 2 kts 136°
2025-10-27 19:50 21.66663 39.16924 44 ft 0 kts 152°
2025-10-27 19:54 21.66652 39.16930 48 ft 3 kts 153°
2025-10-27 19:55 21.66513 39.16990 48 ft 11 kts 159°
2025-10-27 19:55 21.66335 39.16999 48 ft 13 kts 208°
2025-10-27 19:56 21.66281 39.16915 46 ft 16 kts 249°
2025-10-27 19:56 21.66186 39.16647 43 ft 22 kts 250°
2025-10-27 19:57 21.66225 39.16445 40 ft 0 kts 339°
2025-10-27 19:58 21.66605 39.16295 43 ft 94 kts 340°
2025-10-27 19:58 21.68548 39.15503 517 ft 174 kts 339°
2025-10-27 19:59 21.70714 39.14604 2235 ft 160 kts 335°
2025-10-27 19:59 21.72643 39.13768 3129 ft 154 kts 343°
2025-10-27 20:00 21.73718 39.13410 3315 ft 170 kts 343°
2025-10-27 20:00 21.78010 39.11849 4048 ft 230 kts 341°
2025-10-27 20:01 21.81216 39.10606 4656 ft 259 kts 341°
2025-10-27 20:01 21.82961 39.09923 5017 ft 273 kts 340°
2025-10-27 20:02 21.93115 39.05638 8228 ft 295 kts 337°
2025-10-27 20:02 21.98267 39.03621 9840 ft 302 kts 351°
2025-10-27 20:03 22.03243 39.05146 10702 ft 324 kts 46°
2025-10-27 20:03 22.06092 39.09088 11234 ft 348 kts 57°
2025-10-27 20:04 22.07504 39.11269 11480 ft 361 kts 56°
2025-10-27 20:04 22.12873 39.18422 12737 ft 381 kts 50°
2025-10-27 20:05 22.32905 39.42689 17780 ft 405 kts 49°
2025-10-27 20:05 22.36707 39.47330 18347 ft 417 kts 49°
2025-10-27 20:06 22.44597 39.60475 20040 ft 427 kts 64°
2025-10-27 20:06 22.63410 40.04937 24741 ft 457 kts 63°
2025-10-27 20:08 22.85110 40.55214 28283 ft 497 kts 63°
2025-10-27 20:11 22.97021 40.83049 30266 ft 518 kts 63°
2025-10-27 20:13 23.09269 41.11872 32155 ft 534 kts 63°
2025-10-27 20:15 23.21687 41.41288 34578 ft 533 kts 62°
2025-10-27 20:17 23.34276 41.71299 37142 ft 531 kts 63°
2025-10-27 20:19 23.81640 42.85916 41074 ft 535 kts 64°
2025-10-27 20:21 23.93748 43.15668 41087 ft 536 kts 65°
2025-10-27 20:23 24.05805 43.45512 41095 ft 536 kts 65°
2025-10-27 20:25 24.17806 43.75413 41095 ft 536 kts 65°
2025-10-27 20:26 24.29248 44.04110 41138 ft 536 kts 65°
2025-10-27 20:28 24.41130 44.34112 41132 ft 537 kts 66°
2025-10-27 20:30 24.51480 44.60414 41103 ft 537 kts 66°
2025-10-27 20:32 25.17446 46.31704 41152 ft 536 kts 69°
2025-10-27 20:34 25.42657 47.17040 41129 ft 536 kts 83°
2025-10-27 20:36 25.68782 49.20747 41088 ft 541 kts 84°
2025-10-27 20:38 25.91396 51.19361 41057 ft 547 kts 86°
2025-10-27 20:40 26.10100 53.11024 40744 ft 543 kts 107°
2025-10-27 20:42 25.69663 54.17683 32490 ft 565 kts 111°
2025-10-27 20:43 25.59024 54.73404 23391 ft 481 kts 76°
2025-10-27 20:44 25.57295 54.97898 18682 ft 451 kts 118°
2025-10-27 20:44 25.48963 55.14353 13924 ft 399 kts 120°
2025-10-27 20:45 25.46157 55.19542 11012 ft 385 kts 124°
2025-10-27 20:45 25.42038 55.24786 9014 ft 333 kts 132°
2025-10-27 20:46 25.40637 55.26475 8606 ft 310 kts 133°
2025-10-27 20:46 25.38033 55.29636 8022 ft 284 kts 132°
2025-10-27 20:47 25.33847 55.35636 7993 ft 283 kts 121°
2025-10-27 20:47 25.32766 55.37619 7868 ft 284 kts 121°
2025-10-27 20:48 25.30712 55.41361 7422 ft 282 kts 122°
2025-10-27 20:48 25.27653 55.46874 6741 ft 279 kts 122°
2025-10-27 20:49 25.25700 55.50387 6272 ft 277 kts 122°
2025-10-27 20:49 25.24695 55.52194 6051 ft 276 kts 122°
2025-10-27 20:50 25.21691 55.57592 5307 ft 274 kts 122°
2025-10-27 20:50 25.20697 55.59377 5069 ft 273 kts 122°
2025-10-27 20:51 25.18940 55.62532 4794 ft 272 kts 122°
2025-10-27 20:51 25.16974 55.66064 4629 ft 270 kts 122°
2025-10-27 20:52 25.14953 55.69686 4999 ft 277 kts 122°
2025-10-27 20:52 25.11955 55.75059 5024 ft 273 kts 122°
2025-10-27 20:53 25.09957 55.78634 5020 ft 274 kts 122°
2025-10-27 20:53 25.07944 55.82199 5009 ft 274 kts 125°
2025-10-27 20:54 25.04924 55.84542 5009 ft 273 kts 171°
2025-10-27 20:54 25.01731 55.83683 5007 ft 273 kts 219°
2025-10-27 20:55 25.00530 55.81313 5009 ft 274 kts 263°
2025-10-27 20:55 25.00542 55.80286 5013 ft 275 kts 279°
2025-10-27 20:56 25.00909 55.79090 5025 ft 275 kts 299°
2025-10-27 20:57 25.02636 55.76783 5029 ft 277 kts 321°
2025-10-27 20:57 25.03914 55.75225 5006 ft 277 kts 305°
2025-10-27 20:58 25.04997 55.73462 5009 ft 278 kts 304°
2025-10-27 20:58 25.05531 55.72573 5008 ft 278 kts 303°
2025-10-27 20:59 25.06559 55.70761 5013 ft 278 kts 301°
2025-10-27 20:59 25.07466 55.68886 5010 ft 273 kts 296°
2025-10-27 20:59 25.07868 55.67954 5004 ft 265 kts 296°
2025-10-27 21:00 25.09112 55.65504 4998 ft 222 kts 304°
2025-10-27 21:01 25.09925 55.64187 5007 ft 197 kts 305°
2025-10-27 21:01 25.10646 55.62946 4880 ft 188 kts 302°
2025-10-27 21:02 25.11588 55.61194 4471 ft 185 kts 301°
2025-10-27 21:02 25.11919 55.60586 4314 ft 183 kts 302°
2025-10-27 21:03 25.12591 55.59376 4010 ft 177 kts 302°
2025-10-27 21:03 25.13854 55.57105 3563 ft 171 kts 302°
2025-10-27 21:04 25.15081 55.54879 3166 ft 170 kts 302°
2025-10-27 21:04 25.16246 55.52779 2733 ft 151 kts 302°
2025-10-27 21:05 25.17308 55.50815 2397 ft 147 kts 299°
2025-10-27 21:05 25.18131 55.49180 2231 ft 147 kts 300°
2025-10-27 21:06 25.19222 55.47284 1639 ft 147 kts 302°
2025-10-27 21:06 25.19728 55.46332 1403 ft 140 kts 301°
2025-10-27 21:07 25.20765 55.44582 1042 ft 140 kts 302°
2025-10-27 21:07 25.21276 55.43655 910 ft 136 kts 302°
2025-10-27 21:07 25.22606 55.41266 463 ft 144 kts 302°
2025-10-27 21:08 25.23665 55.39358 100 ft 143 kts 302°
2025-10-27 21:09 25.24890 55.37150 38 ft 75 kts 301°